Home   Weather   Bolzano   Past weeks

Flag for Italy Past Weather in Bolzano, Italy — Yesterday and Last 2 Weeks

Now
61 °F

Passing clouds.


Feels Like: 61 °F
Forecast: 36 / 59 °F
Wind: No wind

Location: Bolzano

Current Time: Apr 23, 2017 at 12:08:44 pm

Latest Report: Apr 23, 2017 at 10:50 am


Visibility: N/A

Pressure: 30.01 "Hg

Humidity: 42%

Dew Point: 37 °F

Location of BolzanoLocation

Past Weather in Bolzano — Graph

°F

Bolzano Temperature Yesterday

Maximum temperature yesterday: 73 °F (at 3:50 pm)
Minimum temperature yesterday: 37 °F (at 6:50 am)
Average temperature yesterday: 60 °F

High & Low Weather Summary for the Past Weeks

 TemperatureHumidityPressure
High81 °F (Apr 13, 12:50 pm)93% (Apr 16, 7:50 am)30.45 "Hg (Apr 16, 7:50 am)
Low32 °F (Apr 21, 6:50 am)11% (Apr 20, 4:50 pm)29.71 "Hg (Apr 13, 3:50 pm)
Average61 °F38%30.03 "Hg
* Reported Apr 8 10:50 am — Apr 23 10:50 am, Bolzano, Weather by CustomWeather, © 2017

Note: Actual official high and low records may vary slightly from our data, if they occured in-between our weather recording intervals... More about our weather records

Advertising

Bolzano Weather History for the Previous 24 Hours

Scroll right to see more
 ConditionsComfort  
Time TempWeatherWind HumidityBarometerVisibility
10:50 am
Sun, Apr 23
61 °FPassing clouds.No wind42%30.01 "HgN/A
9:50 am57 °FSunny.No wind48%30.01 "Hg10 mi
8:50 am50 °FSunny.3 mph62%30.04 "Hg10 mi
7:50 am39 °FSunny.No wind87%30.01 "Hg10 mi
6:50 am41 °FSunny.No wind81%30.01 "Hg10 mi
10:50 pm
Sat, Apr 22
57 °FPassing clouds.No wind48%29.98 "HgN/A
9:50 pm63 °FPassing clouds.5 mph34%29.95 "HgN/A
8:50 pm64 °FPassing clouds.9 mph32%29.95 "HgN/A
7:50 pm64 °FScattered clouds.13 mph32%29.92 "HgN/A
6:50 pm68 °FScattered clouds.12 mph26%29.89 "HgN/A
5:50 pm70 °FScattered clouds.13 mph27%29.89 "HgN/A
4:50 pm72 °FPassing clouds.14 mph25%29.89 "HgN/A
3:50 pm73 °FPassing clouds.12 mph22%29.92 "HgN/A
2:50 pm72 °FSunny.10 mph22%29.95 "Hg10 mi
1:50 pm66 °FPassing clouds.8 mph26%30.01 "HgN/A
12:50 pm64 °FPassing clouds.7 mph32%30.07 "HgN/A
Weather by CustomWeather, © 2017

See weather overviewHow to use our weather pages